Вернуться в каталог

ATLAS 5 CENTAUR R/B

АктивенHEO
NORAD 40947·ROCKET BODY·🇺🇸 United States

Запущен Oct 2, 2015 с Cape Canaveral Space Force Station

Loading…

Ближайшие Пролёты (ближайшие 24 часа)

TLE

СвежийSource: Space-Track

Эпоха: Sep 14, 2026, 08:08 UTC

1 40947U 15056B   26257.33941111 -.00000114  00000-0  00000-0 0  9993
2 40947  26.0497  73.0559 5936002 139.1046 285.5756  2.04875597 81972

Отслеживайте ATLAS 5 CENTAUR R/B в реальном времени с AllMySat

Download on the App Store